Tracking 32407 objects as of 6-Dec-2025
HD Live streaming from Space Station
objects crossing your sky now

OPS 9346 (IDSCS 25)

Track OPS 9346 (IDSCS 25) now!
OPS 9346 (IDSCS 25) is classified as:


NORAD ID: 3289
Int'l Code: 1968-050F
Perigee: 33,748.5 km
Apogee: 34,121.2 km
Inclination: 6.7 °
Period: 1,342.2 minutes
Semi major axis: 40305 km
RCS: 0.3981 m2 (medium)
Launch date: June 13, 1968
Source: United States (US)
Launch site: AIR FORCE EASTERN TEST RANGE (AFETR)
Your satellite tracking list
Your tracking list is empty




NASA's NSSDC Master Catalog

Two Line Element Set (TLE):
1 03289U 68050F   25339.25974207 -.00000103  00000-0  00000-0 0  9994
2 03289   6.6783  55.1237 0046228 137.4919 205.4516  1.07288017 48563
Source of the keplerian elements: AFSPC